Location: Hurstbourne Priors
(51.2000°N, 1.3667°W)
Time: 23:00:49
(UTC+00:00)

Altair - Pass Details

Date: 16 April 2021
Orbit: 1501 x 1683 km, 47.2° (Epoch: 13 May)

Event Time Altitude Azimuth Distance (km) Brightness Sun altitude
Rises 06:37:20 0° 218° (SW) 4,856 9.8 13.0°
Reaches altitude 10° 06:40:44 10° 211° (SSW) 3,848 9.3 13.5°
Maximum altitude 06:49:35 41° 146° (SSE) 2,167 8.9 14.9°
Drops below altitude 10° 06:58:08 10° 81° (E) 3,727 11.6 16.2°
Sets 07:01:21 0° 75° (ENE) 4,690 11.4 16.7°
